Location: ?????????
(54.7630°N, 39.4991°E)
Time: 06:25:41
(UTC+00:00)

COSMOS 2455 - Pass Details

Date: 14 April 2026
Orbit: 901 x 907 km, 67.1° (Epoch: 10 May)

Event Time Altitude Azimuth Distance (km) Brightness Sun altitude
Rises 19:17:38 0° 315° (NW) 3,545 7.4 -20.5°
Reaches altitude 10° 19:20:16 10° 321° (NW) 2,602 6.4 -20.7°
Maximum altitude 19:26:05 48° 35° (NE) 1,182 3.6 -21.1°
Enters shadow 19:29:24 24° 97° (E) 1,771 4.0 -21.4°
